TimePST,TemperatureF,Dew PointF,Humidity,Sea Level PressureIn,VisibilityMPH,Wind Direction,Wind SpeedMPH,Gust SpeedMPH,PrecipitationIn,Events,Conditions,WindDirDegrees,DateUTC
12:00 AM,46.4,42.8,87,29.63,8.0,SSW,15.0,-,N/A,,Overcast,210,2013-01-09 08:00:00
1:00 AM,46.4,41.0,81,29.65,8.0,SSW,16.1,-,N/A,,Overcast,210,2013-01-09 09:00:00
2:00 AM,44.6,41.0,87,29.65,8.0,SSW,12.7,19.6,N/A,,Overcast,200,2013-01-09 10:00:00
3:00 AM,44.6,39.2,81,29.67,8.0,SW,11.5,19.6,N/A,,Overcast,220,2013-01-09 11:00:00
4:00 AM,44,38,73,29.65,12,SSW,12.7,,,,Partly Cloudy,200,2013-01-09 12:00:00
4:00 AM,44.6,39.2,81,29.65,12.0,South,10.4,17.3,N/A,,Overcast,190,2013-01-09 12:00:00
5:00 AM,44.6,37.4,76,29.64,12.0,SSW,16.1,-,N/A,,Overcast,210,2013-01-09 13:00:00
6:00 AM,42.8,39.2,87,29.65,12.0,SE,9.2,-,N/A,,Overcast,130,2013-01-09 14:00:00
7:00 AM,42.8,39.2,87,29.65,12.0,East,5.8,-,N/A,,Overcast,90,2013-01-09 15:00:00
8:00 AM,41.0,37.4,87,29.65,15.0,East,5.8,-,N/A,,Overcast,80,2013-01-09 16:00:00
9:00 AM,39.2,37.4,93,29.67,20.0,ESE,4.6,-,N/A,,Overcast,110,2013-01-09 17:00:00
9:44 AM,42.8,-9999,N/A,-9999,30.0,SE,4.6,-,N/A,,Overcast,130,2013-01-09 17:44:00
10:00 AM,43,38,77,29.68,28,ESE,3.5,,,,Scattered Clouds,110,2013-01-09 18:00:00
10:00 AM,42.8,39.2,87,29.68,30.0,SE,3.5,-,N/A,,Mostly Cloudy,130,2013-01-09 18:00:00
11:00 AM,44.6,37.4,76,29.69,30.0,SSE,3.5,-,N/A,,Overcast,150,2013-01-09 19:00:00
12:00 PM,44.6,37.4,76,29.69,30.0,South,4.6,-,N/A,,Mostly Cloudy,180,2013-01-09 20:00:00
1:00 PM,46.4,37.4,71,29.70,30.0,South,3.5,-,N/A,,Mostly Cloudy,180,2013-01-09 21:00:00
2:00 PM,44.6,35.6,71,29.72,30.0,SW,12.7,20.7,N/A,,Overcast,230,2013-01-09 22:00:00
3:00 PM,44.6,35.6,71,29.74,30.0,SW,10.4,-,N/A,,Overcast,230,2013-01-09 23:00:00
4:00 PM,44,36,63,29.76,19,SW,8.1,,,,Scattered Clouds,230,2013-01-10 00:00:00
5:00 PM,42.8,37.4,81,29.77,20.0,West,6.9,-,N/A,,Mostly Cloudy,260,2013-01-10 01:00:00
6:00 PM,42.8,35.6,76,29.79,20.0,WSW,4.6,-,N/A,,Scattered Clouds,240,2013-01-10 02:00:00
7:00 PM,41.0,35.6,81,29.81,20.0,SW,4.6,-,N/A,,Scattered Clouds,230,2013-01-10 03:00:00
8:00 PM,41.0,33.8,76,29.83,20.0,South,2.3,-,N/A,,Partly Cloudy,180,2013-01-10 04:00:00
9:00 PM,37.4,33.8,87,29.86,20.0,Calm,Calm,-,N/A,,Scattered Clouds,0,2013-01-10 05:00:00
10:00 PM,35,33,88,29.88,19,East,5.8,,,,Mostly Cloudy,100,2013-01-10 06:00:00
10:00 PM,35.6,32.0,87,29.88,20.0,East,4.6,-,N/A,,Mostly Cloudy,100,2013-01-10 06:00:00
11:00 PM,35.6,33.8,93,29.90,15.0,East,5.8,-,N/A,,Mostly Cloudy,100,2013-01-10 07:00:00
11:49 PM,37.4,-9999,N/A,-9999,15.0,West,9.2,-,N/A,Rain,Light Rain Showers,280,2013-01-10 07:49:00